Regional Weather Roundup
Issued by NWS Northern Indiana

Home | Current Version | Previous Version | Text Only | Print | Product List | Glossary Off
Versions: 1 2 3 4 5 6 7 8 9 10 11 12 13 14 15 16 17 18 19 20 21 22 23 24 25 26 27 28 29 30 31 32 33 34 35 36 37 38 39 40 41 42 43 44 45 46 47 48 49 50

000
ASUS43 KIWX 011910
RWRIWX

KIWX WEATHER ROUNDUP
NATIONAL WEATHER SERVICE NORTHERN INDIANA
300 PM EDT SAT AUG 01 2015

NOTE: "FAIR" INDICATES FEW OR NO CLOUDS BELOW 12,000 FEET WITH NO
SIGNIFICANT WEATHER AND/OR OBSTRUCTIONS TO VISIBILITY.

* THESE STATIONS ARE NOT UNDER NWS QUALITY CONTROL. THEY ALSO MAY NOT
  REPORT WEATHER SUCH AS PRECIPITATION OR FOG.

INZ001>027-012000-
NORTHERN INDIANA

CITY           SKY/WX    TMP DP  RH WIND       PRES   REMARKS
GARY*          PTSUNNY   84  55  37 NW14      29.97F
VALPARAISO     PTSUNNY   83  55  38 W8        29.98S
MICHIGAN CITY* PTSUNNY   79  52  38 N5        29.98S
LAPORTE*       PTSUNNY   82  55  38 NW7       29.98F
KNOX*          CLOUDY    81  52  36 NW7       29.97F
SOUTH BEND     CLOUDY    78  51  38 NW12      29.99S
ELKHART*       PTSUNNY   81  46  30 NW12G17   29.98S
GOSHEN         SUNNY     81  53  37 NW12G23   29.97F
MONTICELLO*    MOSUNNY   82  58  43 W6        29.99S
LOGANSPORT*    SUNNY     82  45  26 NW6       29.99F
ROCHESTER*     SUNNY     86  52  30 NW13      29.99F
WARSAW*        MOSUNNY   82  52  34 NW10G17   29.97F
ANGOLA*        MOSUNNY   84  55  37 NW9       29.96F
FORT WAYNE     MOSUNNY   83  54  36 NW9       29.98F
HUNTINGTON*    SUNNY     80  52  37 NW6       29.98F
PERU/GRISSOM   SUNNY     83  54  36 W9        29.98F
MARION*        SUNNY     81  52  37 W7        30.00F

$$
INZ028>050-012000-
CENTRAL INDIANA

CITY           SKY/WX    TMP DP  RH WIND       PRES   REMARKS
LAFAYETTE      SUNNY     82  56  40 W7        30.00F
KOKOMO*        MOSUNNY   82  55  39 NW12G17   29.99F
MUNCIE*        SUNNY     80  55  42 W9        30.00F
INDIANAPOLIS   MOSUNNY   83  53  35 W13       30.00F

$$
MIZ043>046-050>051-056>058-064>065-071>073-077>080-012000-
SOUTHWEST LOWER MICHIGAN

CITY           SKY/WX    TMP DP  RH WIND       PRES   REMARKS
BATTLE CREEK   MOSUNNY   83  52  34 NW16G25   29.95F
BENTON HARBOR  CLOUDY    77  61  57 W9        29.97S
COLDWATER*     PTSUNNY   79  48  33 W15       29.95F
HILLSDALE*     MOSUNNY   79  51  37 NW10G18   29.96S
HOLLAND        MOSUNNY   79  59  50 W9        29.95F
GRAND RAPIDS   MOSUNNY   82  48  30 W21G28    29.92F
KALAMAZOO      SUNNY     83  50  31 W14       29.95F
STURGIS*       PTSUNNY   81  54  39 W13G20    29.96S
THREE RIVERS*  FAIR      82  50  32 W14       29.96F

$$
OHZ001>008-015>018-024>025-012000-
NORTHWEST OHIO

CITY           SKY/WX    TMP DP  RH WIND       PRES   REMARKS
WAUSEON*       FAIR      82  55  39 W8G18     29.94F
DEFIANCE       MOSUNNY   84  51  31 W9G20     29.95F
FINDLAY        PTSUNNY   82  54  37 W16G23    29.95F
TOLEDO EXPRESS MOSUNNY   81  54  39 NW14      29.93F
TOLEDO METCALF CLOUDY    81  52  36 NW16      29.94F
LIMA           MOSUNNY   80  53  39 W14       29.97F

$$
AND FOR LAKE MICHIGAN COASTAL AND OPEN LAKE BUOY OBSERVATIONS

STATION/POSITION TEMP    WIND        PRES    VSBY  WAVE
                 AIR SEA DIR/SP/G                  HT/PER
                 (F)     (DEG/KT/KT) (MB)    (MI)  (FT/S)
CALUMET HARBOR    83     280/  7/ 12   N/A
MICHIGAN CITY     76     230/  4/  5   N/A
BURNS HARBOR      78     300/  1/  3 1015.2F
SAINT JOSEPH      79     240/  5/  7 1015.9F
4 MI NW BRIDGMAN  74 74  300/  4/  4   N/A           2/ 4
MICHIGAN CITY     78 75   CALM  /  2   N/A           1/ 4

$$
&&



USA.gov is the U.S. government's official web portal to all federal, state and local government web resources and services.